| time (UTC) | temp F | wind direction | speed MPH | gust MPH | rain 1hr in | rain 24hr in | rain mn in | humidity % | barometer mb |
| 20260509064504 | 87 | 112 | 1.0 | 3.0 | 0.22 | 0.68 | 0.68 | 83 | 1010.0 |
| 20260509064204 | 87 | 97 | 0.0 | 3.0 | 0.27 | 0.68 | 0.68 | 83 | 1010.0 |
| 20260509063904 | 86 | 90 | 0.0 | 3.0 | 0.29 | 0.68 | 0.68 | 83 | 1010.0 |
| 20260509063604 | 86 | 112 | 0.0 | 3.0 | 0.33 | 0.68 | 0.68 | 83 | 1010.0 |
| 20260509063304 | 86 | 113 | 0.0 | 3.0 | 0.46 | 0.68 | 0.68 | 83 | 1010.0 |
| 20260509063004 | 86 | 131 | 1.0 | 4.0 | 0.61 | 0.68 | 0.68 | 83 | 1010.0 |
| 20260509062725 | 86 | 148 | 1.0 | 4.0 | 0.62 | 0.68 | 0.68 | 83 | 1010.0 |
| 20260509062404 | 86 | 125 | 1.0 | 4.0 | 0.65 | 0.68 | 0.68 | 83 | 1010.0 |
| 20260509062104 | 86 | 107 | 1.0 | 4.0 | 0.66 | 0.68 | 0.68 | 83 | 1010.0 |
| 20260509061804 | 86 | 87 | 1.0 | 4.0 | 0.66 | 0.68 | 0.68 | 83 | 1010.0 |
| 20260509061504 | 86 | 92 | 2.0 | 4.0 | 0.66 | 0.68 | 0.68 | 83 | 1010.0 |
| 20260509061204 | 86 | 107 | 2.0 | 4.0 | 0.65 | 0.68 | 0.68 | 83 | 1010.0 |
| 20260509060904 | 86 | 106 | 1.0 | 4.0 | 0.65 | 0.67 | 0.67 | 83 | 1010.0 |
| 20260509060604 | 86 | 110 | 1.0 | 4.0 | 0.64 | 0.66 | 0.66 | 83 | 1010.0 |
| 20260509060304 | 86 | 107 | 1.0 | 3.0 | 0.61 | 0.63 | 0.63 | 83 | 1010.0 |
| 20260509060004 | 86 | 106 | 1.0 | 3.0 | 0.58 | 0.60 | 0.60 | 83 | 1010.0 |
| 20260509055725 | 86 | 119 | 1.0 | 3.0 | 0.54 | 0.56 | 0.56 | 83 | 1010.0 |
| 20260509055404 | 86 | 115 | 2.0 | 3.0 | 0.50 | 0.51 | 0.51 | 82 | 1010.0 |
| 20260509055104 | 86 | 97 | 2.0 | 3.0 | 0.48 | 0.50 | 0.50 | 83 | 1010.0 |
| 20260509054825 | 86 | 79 | 1.0 | 3.0 | 0.48 | 0.49 | 0.49 | 83 | 1010.0 |
| 20260509054504 | 85 | 69 | 1.0 | 3.0 | 0.45 | 0.46 | 0.46 | 83 | 1010.0 |
| 20260509054225 | 86 | 61 | 1.0 | 3.0 | 0.40 | 0.41 | 0.41 | 83 | 1010.0 |
| 20260509053904 | 86 | 63 | 1.0 | 3.0 | 0.39 | 0.39 | 0.39 | 83 | 1010.0 |
| 20260509053604 | 86 | 85 | 1.0 | 3.0 | 0.34 | 0.35 | 0.35 | 83 | 1010.0 |
| 20260509053304 | 86 | 95 | 1.0 | 3.0 | 0.22 | 0.22 | 0.22 | 83 | 1010.0 |
| 20260509053004 | 86 | 118 | 1.0 | 3.0 | 0.07 | 0.07 | 0.07 | 84 | 1010.0 |
| 20260509052704 | 86 | 110 | 0.0 | 3.0 | 0.06 | 0.06 | 0.06 | 84 | 1010.0 |
| 20260509052404 | 86 | 139 | 0.0 | 3.0 | 0.03 | 0.03 | 0.03 | 84 | 1010.0 |
| 20260509052104 | 86 | 159 | 1.0 | 3.0 | 0.02 | 0.02 | 0.02 | 84 | 1010.0 |
| 20260509051825 | 85 | 149 | 1.0 | 3.0 | 0.02 | 0.02 | 0.02 | 84 | 1010.0 |
| 20260509051505 | 85 | 157 | 1.0 | 3.0 | 0.02 | 0.02 | 0.02 | 84 | 1010.0 |
| 20260509051204 | 86 | 186 | 1.0 | 3.0 | 0.02 | 0.02 | 0.02 | 84 | 1010.0 |
| 20260509050905 | 86 | 181 | 0.0 | 2.0 | 0.02 | 0.02 | 0.02 | 83 | 1010.0 |
| 20260509050604 | 86 | 193 | 0.0 | 2.0 | 0.02 | 0.02 | 0.02 | 83 | 1010.0 |
| 20260509050304 | 86 | 188 | 0.0 | 2.0 | 0.02 | 0.02 | 0.02 | 82 | 1010.0 |
| 20260509050004 | 86 | 155 | 0.0 | 2.0 | 0.02 | 0.02 | 0.02 | 82 | 1010.0 |
| 20260509045704 | 86 | 160 | 0.0 | 2.0 | 0.02 | 0.02 | 0.02 | 82 | 1010.0 |
| 20260509045425 | 86 | 145 | 0.0 | 2.0 | 0.02 | 0.02 | 0.02 | 81 | 1010.0 |
| 20260509045104 | 86 | 146 | 0.0 | 2.0 | 0.02 | 0.02 | 0.02 | 81 | 1010.0 |
| 20260509044804 | 86 | 129 | 0.0 | 2.0 | 0.02 | 0.02 | 0.02 | 81 | 1010.0 |
| 20260509044504 | 86 | 115 | 0.0 | 3.0 | 0.01 | 0.01 | 0.01 | 81 | 1010.0 |
| 20260509044204 | 86 | 100 | 0.0 | 3.0 | 0.01 | 0.01 | 0.01 | 81 | 1010.0 |
| 20260509043904 | 86 | 108 | 1.0 | 3.0 | 0.00 | 0.00 | 0.00 | 81 | 1010.0 |
| 20260509043604 | 86 | 102 | 0.0 | 3.0 | 0.00 | 0.00 | 0.00 | 81 | 1010.0 |
| 20260509043304 | 86 | 104 | 1.0 | 2.0 | 0.00 | 0.00 | 0.00 | 82 | 1010.0 |
| 20260509043004 | 86 | 107 | 1.0 | 2.0 | 0.00 | 0.00 | 0.00 | 82 | 1010.0 |
| 20260509042704 | 86 | 94 | 1.0 | 2.0 | 0.00 | 0.00 | 0.00 | 82 | 1010.0 |
| 20260509042404 | 86 | 83 | 0.0 | 2.0 | 0.00 | 0.00 | 0.00 | 82 | 1010.0 |
| 20260509042104 | 86 | 80 | 0.0 | 2.0 | 0.00 | 0.00 | 0.00 | 82 | 1010.0 |
| 20260509041804 | 86 | 89 | 0.0 | 2.0 | 0.00 | 0.00 | 0.00 | 82 | 1010.0 |
| 20260509041525 | 86 | 95 | 0.0 | 2.0 | 0.00 | 0.00 | 0.00 | 81 | 1010.0 |
| 20260509041204 | 86 | 83 | 0.0 | 2.0 | 0.00 | 0.00 | 0.00 | 81 | 1010.0 |
| 20260509040904 | 86 | 128 | 0.0 | 2.0 | 0.00 | 0.00 | 0.00 | 81 | 1010.0 |
| 20260509040625 | 86 | 140 | 0.0 | 3.0 | 0.00 | 0.00 | 0.00 | 81 | 1010.0 |
| 20260509040304 | 86 | 164 | 0.0 | 3.0 | 0.00 | 0.00 | 0.00 | 81 | 1010.0 |
| 20260509040004 | 86 | 159 | 1.0 | 3.0 | 0.00 | 0.00 | 0.00 | 81 | 1010.0 |
| 20260509035725 | 86 | 167 | 1.0 | 3.0 | 0.00 | 0.00 | 0.00 | 81 | 1010.0 |
| 20260509035404 | 86 | 172 | 1.0 | 3.0 | 0.00 | 0.00 | 0.00 | 81 | 1010.0 |
| 20260509035104 | 86 | 173 | 1.0 | 3.0 | 0.00 | 0.00 | 0.00 | 80 | 1010.0 |
| 20260509034804 | 86 | 175 | 1.0 | 3.0 | 0.00 | 0.00 | 0.00 | 80 | 1010.0 |
| 20260509034525 | 86 | 167 | 0.0 | 3.0 | 0.00 | 0.00 | 0.00 | 80 | 1010.0 |
| 20260509034225 | 86 | 156 | 0.0 | 2.0 | 0.00 | 0.00 | 0.00 | 80 | 1010.0 |
| 20260509033925 | 86 | 163 | 0.0 | 3.0 | 0.00 | 0.00 | 0.00 | 80 | 1010.0 |
| 20260509033604 | 86 | 159 | 1.0 | 3.0 | 0.00 | 0.00 | 0.00 | 80 | 1010.0 |
| 20260509033304 | 86 | 172 | 1.0 | 3.0 | 0.00 | 0.00 | 0.00 | 80 | 1010.0 |
| 20260509033004 | 86 | 192 | 1.0 | 3.0 | 0.00 | 0.00 | 0.00 | 80 | 1010.0 |
| 20260509032725 | 86 | 205 | 1.0 | 3.0 | 0.00 | 0.00 | 0.00 | 80 | 1010.0 |
| 20260509032425 | 86 | 214 | 1.0 | 3.0 | 0.00 | 0.00 | 0.00 | 80 | 1010.0 |
| 20260509032104 | 86 | 194 | 1.0 | 2.0 | 0.00 | 0.00 | 0.00 | 80 | 1010.0 |
| 20260509031804 | 86 | 192 | 0.0 | 2.0 | 0.00 | 0.00 | 0.00 | 80 | 1010.0 |
| 20260509031525 | 86 | 210 | 0.0 | 2.0 | 0.00 | 0.00 | 0.00 | 80 | 1010.0 |
| 20260509031204 | 86 | 253 | 0.0 | 2.0 | 0.00 | 0.00 | 0.00 | 80 | 1010.0 |
| 20260509030904 | 86 | 199 | 0.0 | 2.0 | 0.00 | 0.00 | 0.00 | 80 | 1010.0 |
| 20260509030604 | 85 | 160 | 0.0 | 2.0 | 0.00 | 0.00 | 0.00 | 80 | 1010.0 |
| 20260509030304 | 85 | 107 | 0.0 | 2.0 | 0.00 | 0.00 | 0.00 | 79 | 1010.0 |
| 20260509030004 | 85 | 4 | 0.0 | 2.0 | 0.00 | 0.00 | 0.00 | 79 | 1010.0 |
| 20260509025704 | 85 | 346 | 0.0 | 2.0 | 0.00 | 0.00 | 0.00 | 80 | 1010.0 |
| 20260509025404 | 85 | 352 | 0.0 | 2.0 | 0.00 | 0.00 | 0.00 | 80 | 1010.0 |
| 20260509025104 | 85 | 360 | 0.0 | 2.0 | 0.00 | 0.00 | 0.00 | 80 | 1010.0 |
| 20260509024804 | 85 | 9 | 0.0 | 2.0 | 0.00 | 0.00 | 0.00 | 80 | 1010.0 |
| 20260509024525 | 85 | 84 | 0.0 | 2.0 | 0.00 | 0.00 | 0.00 | 80 | 1010.0 |
| 20260509024204 | 85 | 146 | 1.0 | 3.0 | 0.00 | 0.00 | 0.00 | 80 | 1010.0 |
| 20260509023904 | 85 | 149 | 1.0 | 3.0 | 0.00 | 0.00 | 0.00 | 80 | 1010.0 |
| 20260509023604 | 85 | 150 | 1.0 | 3.0 | 0.00 | 0.00 | 0.00 | 79 | 1010.0 |
| 20260509023304 | 85 | 145 | 1.0 | 3.0 | 0.00 | 0.00 | 0.00 | 79 | 1010.0 |
| 20260509023004 | 85 | 153 | 1.0 | 3.0 | 0.00 | 0.00 | 0.00 | 79 | 1010.0 |
| 20260509022704 | 85 | 142 | 1.0 | 3.0 | 0.00 | 0.00 | 0.00 | 79 | 1010.0 |
| 20260509022404 | 85 | 153 | 1.0 | 3.0 | 0.00 | 0.00 | 0.00 | 79 | 1010.0 |
| 20260509022125 | 85 | 165 | 1.0 | 3.0 | 0.00 | 0.00 | 0.00 | 79 | 1010.0 |
| 20260509021804 | 85 | 172 | 1.0 | 3.0 | 0.00 | 0.00 | 0.00 | 79 | 1010.0 |
| 20260509021504 | 85 | 160 | 1.0 | 3.0 | 0.00 | 0.00 | 0.00 | 79 | 1010.0 |
| 20260509021204 | 85 | 157 | 0.0 | 2.0 | 0.00 | 0.00 | 0.00 | 79 | 1010.0 |
| 20260509020904 | 85 | 149 | 0.0 | 2.0 | 0.00 | 0.00 | 0.00 | 79 | 1010.0 |
| 20260509020604 | 85 | 163 | 1.0 | 2.0 | 0.00 | 0.00 | 0.00 | 79 | 1010.0 |
| 20260509020304 | 85 | 162 | 1.0 | 2.0 | 0.00 | 0.00 | 0.00 | 79 | 1010.0 |
| 20260509020004 | 85 | 149 | 1.0 | 2.0 | 0.00 | 0.00 | 0.00 | 79 | 1010.0 |
| 20260509015704 | 85 | 141 | 0.0 | 2.0 | 0.00 | 0.00 | 0.00 | 79 | 1010.0 |
| 20260509015404 | 85 | 120 | 0.0 | 2.0 | 0.00 | 0.00 | 0.00 | 79 | 1010.0 |
| 20260509015104 | 85 | 113 | 0.0 | 2.0 | 0.00 | 0.00 | 0.00 | 79 | 1010.0 |
| 20260509014804 | 85 | 98 | 0.0 | 2.0 | 0.00 | 0.00 | 0.00 | 80 | 1010.0 |
| 20260509014504 | 85 | 99 | 0.0 | 2.0 | 0.00 | 0.00 | 0.00 | 80 | 1010.0 |
| 20260509014204 | 85 | 98 | 0.0 | 2.0 | 0.00 | 0.00 | 0.00 | 79 | 1010.0 |
| 20260509013904 | 85 | 127 | 0.0 | 2.0 | 0.00 | 0.00 | 0.00 | 80 | 1010.0 |
| 20260509013604 | 84 | 133 | 0.0 | 2.0 | 0.00 | 0.00 | 0.00 | 80 | 1010.0 |
| 20260509013325 | 84 | 126 | 0.0 | 3.0 | 0.00 | 0.00 | 0.00 | 80 | 1010.0 |
| 20260509013004 | 84 | 135 | 1.0 | 3.0 | 0.00 | 0.00 | 0.00 | 80 | 1010.0 |
| 20260509012704 | 84 | 136 | 1.0 | 3.0 | 0.00 | 0.00 | 0.00 | 80 | 1010.0 |
| 20260509012425 | 84 | 145 | 1.0 | 3.0 | 0.00 | 0.00 | 0.00 | 80 | 1010.0 |
| 20260509012104 | 84 | 140 | 1.0 | 2.0 | 0.00 | 0.00 | 0.00 | 80 | 1010.0 |
| 20260509011804 | 84 | 123 | 1.0 | 3.0 | 0.00 | 0.00 | 0.00 | 80 | 1010.0 |
| 20260509011504 | 84 | 120 | 1.0 | 3.0 | 0.00 | 0.00 | 0.00 | 80 | 1010.0 |
| 20260509011204 | 85 | 126 | 1.0 | 3.0 | 0.00 | 0.00 | 0.00 | 79 | 1010.0 |
| 20260509010904 | 84 | 139 | 1.0 | 3.0 | 0.00 | 0.00 | 0.00 | 79 | 1010.0 |
| 20260509010604 | 84 | 155 | 1.0 | 2.0 | 0.00 | 0.00 | 0.00 | 79 | 1010.0 |
| 20260509010304 | 85 | 139 | 1.0 | 2.0 | 0.00 | 0.00 | 0.00 | 79 | 1010.0 |
| 20260509010004 | 85 | 135 | 0.0 | 2.0 | 0.00 | 0.00 | 0.00 | 79 | 1010.0 |
| 20260509005704 | 85 | 126 | 0.0 | 2.0 | 0.00 | 0.00 | 0.00 | 79 | 1010.0 |
| 20260509005404 | 85 | 114 | 0.0 | 2.0 | 0.00 | 0.00 | 0.00 | 78 | 1010.0 |
| 20260509005104 | 85 | 87 | 0.0 | 2.0 | 0.00 | 0.00 | 0.00 | 79 | 1010.0 |
| 20260509004804 | 85 | 74 | 0.0 | 3.0 | 0.00 | 0.00 | 0.00 | 78 | 1010.0 |
| 20260509004504 | 85 | 76 | 1.0 | 3.0 | 0.00 | 0.00 | 0.00 | 78 | 1010.0 |
| 20260509004225 | 85 | 88 | 0.0 | 3.0 | 0.00 | 0.00 | 0.00 | 78 | 1010.0 |
| 20260509003925 | 85 | 99 | 1.0 | 3.0 | 0.00 | 0.00 | 0.00 | 78 | 1010.0 |
| 20260509003604 | 85 | 93 | 0.0 | 2.0 | 0.00 | 0.00 | 0.00 | 78 | 1010.0 |
| 20260509003325 | 85 | 102 | 0.0 | 2.0 | 0.00 | 0.00 | 0.00 | 78 | 1010.0 |
| 20260509003004 | 85 | 108 | 0.0 | 2.0 | 0.00 | 0.00 | 0.00 | 78 | 1010.0 |
| 20260509002704 | 85 | 129 | 0.0 | 2.0 | 0.00 | 0.00 | 0.00 | 78 | 1010.0 |
| 20260509002404 | 85 | 127 | 0.0 | 2.0 | 0.00 | 0.00 | 0.00 | 78 | 1010.0 |
| 20260509002104 | 85 | 129 | 0.0 | 2.0 | 0.00 | 0.00 | 0.00 | 78 | 1010.0 |
| 20260509001804 | 85 | 115 | 0.0 | 2.0 | 0.00 | 0.00 | 0.00 | 78 | 1010.0 |
| 20260509001525 | 85 | 113 | 0.0 | 2.0 | 0.00 | 0.00 | 0.00 | 78 | 1010.0 |
| 20260509001204 | 85 | 108 | 0.0 | 2.0 | 0.00 | 0.00 | 0.00 | 78 | 1010.0 |
| 20260509000904 | 85 | 97 | 0.0 | 2.0 | 0.00 | 0.00 | 0.00 | 78 | 1010.0 |
| 20260509000625 | 85 | 90 | 0.0 | 2.0 | 0.00 | 0.00 | 0.00 | 78 | 1010.0 |
| 20260509000304 | 85 | 99 | 1.0 | 2.0 | 0.00 | 0.00 | 0.00 | 78 | 1010.0 |
| 20260509000004 | 85 | 99 | 1.0 | 2.0 | 0.00 | 0.00 | 0.00 | 78 | 1010.0 |
| 20260508235704 | 85 | 96 | 0.0 | 2.0 | 0.00 | 0.00 | 0.00 | 78 | 1010.0 |
| 20260508235404 | 86 | 100 | 0.0 | 2.0 | 0.00 | 0.00 | 0.00 | 78 | 1010.0 |
| 20260508235104 | 86 | 114 | 0.0 | 2.0 | 0.00 | 0.00 | 0.00 | 77 | 1010.0 |
| 20260508234825 | 86 | 126 | 0.0 | 2.0 | 0.00 | 0.00 | 0.00 | 77 | 1010.0 |
| 20260508234504 | 85 | 138 | 0.0 | 2.0 | 0.00 | 0.00 | 0.00 | 77 | 1010.0 |
| 20260508234225 | 85 | 130 | 0.0 | 2.0 | 0.00 | 0.00 | 0.00 | 77 | 1010.0 |
| 20260508233925 | 85 | 136 | 0.0 | 2.0 | 0.00 | 0.00 | 0.00 | 77 | 1010.0 |
| 20260508233604 | 85 | 132 | 0.0 | 2.0 | 0.00 | 0.00 | 0.00 | 77 | 1010.0 |
| 20260508233325 | 85 | 125 | 0.0 | 2.0 | 0.00 | 0.00 | 0.00 | 77 | 1010.0 |
| 20260508233004 | 86 | 116 | 1.0 | 2.0 | 0.00 | 0.00 | 0.00 | 77 | 1010.0 |
| 20260508232704 | 85 | 107 | 1.0 | 2.0 | 0.00 | 0.00 | 0.00 | 77 | 1010.0 |
| 20260508232404 | 85 | 91 | 1.0 | 2.0 | 0.00 | 0.00 | 0.00 | 77 | 1010.0 |
| 20260508232104 | 86 | 80 | 1.0 | 2.0 | 0.00 | 0.00 | 0.00 | 77 | 1010.0 |
| 20260508231804 | 86 | 71 | 1.0 | 2.0 | 0.00 | 0.00 | 0.00 | 77 | 1010.0 |
| 20260508231504 | 86 | 95 | 1.0 | 2.0 | 0.00 | 0.00 | 0.00 | 77 | 1010.0 |
| 20260508231204 | 86 | 108 | 1.0 | 2.0 | 0.00 | 0.00 | 0.00 | 77 | 1010.0 |
| 20260508230925 | 86 | 116 | 1.0 | 2.0 | 0.00 | 0.00 | 0.00 | 77 | 1010.0 |
| 20260508230625 | 86 | 113 | 1.0 | 2.0 | 0.00 | 0.00 | 0.00 | 77 | 1010.0 |
| 20260508230304 | 86 | 115 | 1.0 | 2.0 | 0.00 | 0.00 | 0.00 | 77 | 1010.0 |
| 20260508230004 | 86 | 127 | 1.0 | 2.0 | 0.00 | 0.00 | 0.00 | 77 | 1010.0 |
| 20260508225725 | 86 | 120 | 1.0 | 2.0 | 0.00 | 0.00 | 0.00 | 77 | 1010.0 |
| 20260508225404 | 86 | 118 | 0.0 | 2.0 | 0.00 | 0.00 | 0.00 | 77 | 1010.0 |
| 20260508225104 | 86 | 128 | 1.0 | 3.0 | 0.00 | 0.00 | 0.00 | 77 | 1010.0 |
| 20260508224804 | 86 | 135 | 1.0 | 3.0 | 0.00 | 0.00 | 0.00 | 77 | 1010.0 |
| 20260508224504 | 86 | 141 | 1.0 | 3.0 | 0.00 | 0.00 | 0.00 | 77 | 1010.0 |
| 20260508224204 | 86 | 125 | 1.0 | 3.0 | 0.00 | 0.00 | 0.00 | 77 | 1010.0 |
| 20260508223904 | 86 | 109 | 1.0 | 2.0 | 0.00 | 0.00 | 0.00 | 77 | 1010.0 |
| 20260508223604 | 86 | 87 | 1.0 | 2.0 | 0.00 | 0.00 | 0.00 | 77 | 1010.0 |
| 20260508223304 | 85 | 62 | 1.0 | 2.0 | 0.00 | 0.00 | 0.00 | 77 | 1010.0 |
| 20260508223004 | 86 | 47 | 1.0 | 2.0 | 0.00 | 0.00 | 0.00 | 77 | 1010.0 |
| 20260508222725 | 86 | 57 | 1.0 | 2.0 | 0.00 | 0.00 | 0.00 | 77 | 1010.0 |
| 20260508222404 | 86 | 131 | 1.0 | 2.0 | 0.00 | 0.00 | 0.00 | 77 | 1010.0 |
| 20260508222104 | 86 | 156 | 1.0 | 3.0 | 0.00 | 0.00 | 0.00 | 77 | 1010.0 |
| 20260508221804 | 86 | 152 | 1.0 | 3.0 | 0.00 | 0.00 | 0.00 | 77 | 1010.0 |
| 20260508221504 | 86 | 146 | 1.0 | 3.0 | 0.00 | 0.00 | 0.00 | 77 | 1010.0 |
| 20260508221204 | 86 | 138 | 1.0 | 3.0 | 0.00 | 0.00 | 0.00 | 77 | 1010.0 |
| 20260508220904 | 86 | 132 | 1.0 | 3.0 | 0.00 | 0.00 | 0.00 | 77 | 1010.0 |
| 20260508220604 | 86 | 136 | 1.0 | 3.0 | 0.00 | 0.00 | 0.00 | 77 | 1010.0 |
| 20260508220304 | 86 | 150 | 1.0 | 3.0 | 0.00 | 0.00 | 0.00 | 77 | 1010.0 |
| 20260508220004 | 86 | 149 | 1.0 | 3.0 | 0.00 | 0.00 | 0.00 | 77 | 1010.0 |
| 20260508215725 | 86 | 152 | 1.0 | 2.0 | 0.00 | 0.00 | 0.00 | 77 | 1010.0 |
| 20260508215404 | 86 | 145 | 1.0 | 2.0 | 0.00 | 0.00 | 0.00 | 77 | 1010.0 |
| 20260508215104 | 86 | 138 | 1.0 | 2.0 | 0.00 | 0.00 | 0.00 | 77 | 1010.0 |
| 20260508214804 | 86 | 127 | 1.0 | 2.0 | 0.00 | 0.00 | 0.00 | 77 | 1010.0 |
| 20260508214504 | 86 | 116 | 1.0 | 2.0 | 0.00 | 0.00 | 0.00 | 77 | 1010.0 |
| 20260508214204 | 86 | 117 | 1.0 | 2.0 | 0.00 | 0.00 | 0.00 | 77 | 1010.0 |
| 20260508213904 | 86 | 155 | 0.0 | 2.0 | 0.00 | 0.00 | 0.00 | 77 | 1010.0 |
| 20260508213625 | 86 | 137 | 0.0 | 2.0 | 0.00 | 0.00 | 0.00 | 77 | 1010.0 |
| 20260508213304 | 86 | 128 | 1.0 | 2.0 | 0.00 | 0.00 | 0.00 | 77 | 1010.0 |
| 20260508213004 | 86 | 117 | 1.0 | 2.0 | 0.00 | 0.00 | 0.00 | 77 | 1010.0 |
| 20260508212704 | 86 | 101 | 1.0 | 2.0 | 0.00 | 0.00 | 0.00 | 77 | 1010.0 |
| 20260508212404 | 86 | 89 | 1.0 | 2.0 | 0.00 | 0.00 | 0.00 | 77 | 1010.0 |
| 20260508212104 | 86 | 98 | 1.0 | 2.0 | 0.00 | 0.00 | 0.00 | 77 | 1010.0 |
| 20260508211804 | 86 | 103 | 1.0 | 2.0 | 0.00 | 0.00 | 0.00 | 77 | 1010.0 |
| 20260508211504 | 86 | 125 | 1.0 | 3.0 | 0.00 | 0.00 | 0.00 | 77 | 1010.0 |
| 20260508211204 | 86 | 128 | 1.0 | 3.0 | 0.00 | 0.00 | 0.00 | 77 | 1010.0 |
| 20260508210904 | 86 | 128 | 1.0 | 3.0 | 0.00 | 0.00 | 0.00 | 77 | 1010.0 |
| 20260508210604 | 86 | 118 | 1.0 | 3.0 | 0.00 | 0.00 | 0.00 | 77 | 1010.0 |
| 20260508210304 | 86 | 83 | 1.0 | 3.0 | 0.00 | 0.00 | 0.00 | 77 | 1010.0 |
| 20260508210004 | 86 | 83 | 0.0 | 3.0 | 0.00 | 0.00 | 0.00 | 77 | 1010.0 |
| 20260508205704 | 86 | 107 | 1.0 | 3.0 | 0.00 | 0.00 | 0.00 | 77 | 1010.0 |
| 20260508205404 | 86 | 119 | 1.0 | 3.0 | 0.00 | 0.00 | 0.00 | 77 | 1010.0 |
| 20260508205104 | 86 | 117 | 1.0 | 3.0 | 0.00 | 0.00 | 0.00 | 77 | 1010.0 |
| 20260508204825 | 86 | 125 | 1.0 | 3.0 | 0.00 | 0.00 | 0.00 | 77 | 1010.0 |
| 20260508204504 | 86 | 131 | 1.0 | 3.0 | 0.00 | 0.00 | 0.00 | 77 | 1010.0 |
| 20260508204204 | 86 | 129 | 1.0 | 3.0 | 0.00 | 0.00 | 0.00 | 77 | 1010.0 |
| 20260508203925 | 86 | 138 | 1.0 | 3.0 | 0.00 | 0.00 | 0.00 | 76 | 1010.0 |
| 20260508203604 | 86 | 99 | 1.0 | 4.0 | 0.00 | 0.00 | 0.00 | 77 | 1010.0 |
| 20260508203304 | 86 | 71 | 1.0 | 4.0 | 0.00 | 0.00 | 0.00 | 77 | 1010.0 |
| 20260508203004 | 86 | 50 | 1.0 | 4.0 | 0.00 | 0.00 | 0.00 | 77 | 1010.0 |
| 20260508202704 | 86 | 43 | 1.0 | 4.0 | 0.00 | 0.00 | 0.00 | 77 | 1010.0 |
| 20260508202425 | 86 | 52 | 1.0 | 3.0 | 0.00 | 0.00 | 0.00 | 77 | 1010.0 |
| 20260508202104 | 86 | 83 | 1.0 | 3.0 | 0.00 | 0.00 | 0.00 | 76 | 1010.0 |
| 20260508201825 | 86 | 99 | 1.0 | 3.0 | 0.00 | 0.00 | 0.00 | 77 | 1010.0 |
| 20260508201504 | 86 | 108 | 1.0 | 3.0 | 0.00 | 0.00 | 0.00 | 76 | 1010.0 |
| 20260508201204 | 86 | 112 | 1.0 | 4.0 | 0.00 | 0.00 | 0.00 | 77 | 1010.0 |
| 20260508200904 | 86 | 111 | 1.0 | 4.0 | 0.00 | 0.00 | 0.00 | 76 | 1010.0 |
| 20260508200604 | 86 | 110 | 1.0 | 4.0 | 0.00 | 0.00 | 0.00 | 77 | 1010.0 |
| 20260508200325 | 86 | 112 | 1.0 | 4.0 | 0.00 | 0.00 | 0.00 | 76 | 1010.0 |
| 20260508200004 | 86 | 118 | 1.0 | 4.0 | 0.00 | 0.00 | 0.00 | 76 | 1010.0 |
| 20260508195725 | 86 | 94 | 1.0 | 5.0 | 0.00 | 0.00 | 0.00 | 76 | 1010.0 |
| 20260508195404 | 86 | 60 | 2.0 | 5.0 | 0.00 | 0.00 | 0.00 | 76 | 1010.0 |
| 20260508195104 | 86 | 40 | 2.0 | 5.0 | 0.00 | 0.00 | 0.00 | 76 | 1010.0 |
| 20260508194804 | 86 | 36 | 2.0 | 5.0 | 0.00 | 0.00 | 0.00 | 76 | 1010.0 |
| 20260508194504 | 86 | 102 | 1.0 | 3.0 | 0.00 | 0.00 | 0.00 | 76 | 1010.0 |
| 20260508194204 | 86 | 116 | 1.0 | 4.0 | 0.00 | 0.00 | 0.00 | 76 | 1010.0 |
| 20260508193904 | 86 | 118 | 0.0 | 4.0 | 0.00 | 0.00 | 0.00 | 76 | 1010.0 |
| 20260508193604 | 86 | 103 | 0.0 | 4.0 | 0.00 | 0.00 | 0.00 | 76 | 1010.0 |
| 20260508193325 | 86 | 76 | 0.0 | 4.0 | 0.00 | 0.00 | 0.00 | 76 | 1010.0 |
| 20260508193004 | 86 | 87 | 1.0 | 3.0 | 0.00 | 0.00 | 0.00 | 76 | 1010.0 |
| 20260508192704 | 86 | 112 | 1.0 | 3.0 | 0.00 | 0.00 | 0.00 | 76 | 1010.0 |
| 20260508192404 | 86 | 119 | 1.0 | 3.0 | 0.00 | 0.00 | 0.00 | 76 | 1010.0 |
| 20260508192125 | 86 | 125 | 1.0 | 5.0 | 0.00 | 0.00 | 0.00 | 76 | 1010.0 |
| 20260508191804 | 86 | 116 | 1.0 | 5.0 | 0.00 | 0.00 | 0.00 | 76 | 1010.0 |
| 20260508191525 | 86 | 79 | 2.0 | 6.0 | 0.00 | 0.00 | 0.00 | 76 | 1010.0 |
| 20260508191204 | 86 | 66 | 2.0 | 6.0 | 0.00 | 0.00 | 0.00 | 76 | 1010.0 |
| 20260508190904 | 86 | 62 | 2.0 | 6.0 | 0.00 | 0.00 | 0.00 | 76 | 1010.0 |
| 20260508190604 | 86 | 77 | 1.0 | 6.0 | 0.00 | 0.00 | 0.00 | 76 | 1010.0 |
| 20260508190304 | 86 | 118 | 1.0 | 3.0 | 0.00 | 0.00 | 0.00 | 76 | 1010.0 |
| 20260508190004 | 86 | 103 | 0.0 | 3.0 | 0.00 | 0.00 | 0.00 | 76 | 1010.0 |
| 20260508185725 | 86 | 100 | 0.0 | 1.0 | 0.00 | 0.00 | 0.00 | 76 | 1010.0 |
| 20260508185404 | 86 | 91 | 0.0 | 1.0 | 0.00 | 0.00 | 0.00 | 76 | 1010.0 |
| 20260508185104 | 86 | 34 | 0.0 | 2.0 | 0.00 | 0.00 | 0.00 | 76 | 1010.0 |
| 20260508184804 | 86 | 122 | 0.0 | 2.0 | 0.00 | 0.00 | 0.00 | 76 | 1010.0 |
| 20260508184504 | 86 | 138 | 0.0 | 2.0 | 0.00 | 0.00 | 0.00 | 76 | 1010.0 |
| 20260508184204 | 86 | 143 | 1.0 | 2.0 | 0.00 | 0.00 | 0.00 | 76 | 1010.0 |
| 20260508183904 | 86 | 146 | 1.0 | 3.0 | 0.00 | 0.00 | 0.00 | 76 | 1010.0 |
| 20260508183604 | 86 | 148 | 1.0 | 3.0 | 0.00 | 0.00 | 0.00 | 76 | 1010.0 |
| 20260508183304 | 87 | 152 | 1.0 | 3.0 | 0.00 | 0.00 | 0.00 | 76 | 1010.0 |
| 20260508183004 | 86 | 157 | 1.0 | 3.0 | 0.00 | 0.00 | 0.00 | 76 | 1010.0 |
| 20260508182704 | 86 | 161 | 1.0 | 3.0 | 0.00 | 0.00 | 0.00 | 76 | 1010.0 |
| 20260508182404 | 87 | 162 | 1.0 | 3.0 | 0.00 | 0.00 | 0.00 | 76 | 1010.0 |
| 20260508182104 | 86 | 155 | 1.0 | 3.0 | 0.00 | 0.00 | 0.00 | 76 | 1010.0 |
| 20260508181804 | 87 | 158 | 1.0 | 2.0 | 0.00 | 0.00 | 0.00 | 76 | 1010.0 |
| 20260508181504 | 87 | 157 | 0.0 | 2.0 | 0.00 | 0.00 | 0.00 | 76 | 1010.0 |
| 20260508181204 | 87 | 185 | 0.0 | 1.0 | 0.00 | 0.00 | 0.00 | 76 | 1010.0 |
| 20260508180925 | 87 | 121 | 0.0 | 1.0 | 0.00 | 0.00 | 0.00 | 76 | 1010.0 |
| 20260508180626 | 87 | 116 | 0.0 | 1.0 | 0.00 | 0.00 | 0.00 | 76 | 1010.0 |
| 20260508180304 | 87 | 125 | 0.0 | 1.0 | 0.00 | 0.00 | 0.00 | 76 | 1010.0 |
| 20260508180025 | 87 | 127 | 0.0 | 1.0 | 0.00 | 0.00 | 0.00 | 76 | 1010.0 |
| 20260508175704 | 87 | 130 | 0.0 | 2.0 | 0.00 | 0.00 | 0.00 | 76 | 1010.0 |
| 20260508175404 | 87 | 123 | 0.0 | 2.0 | 0.00 | 0.00 | 0.00 | 76 | 1010.0 |
| 20260508175104 | 87 | 125 | 0.0 | 2.0 | 0.00 | 0.00 | 0.00 | 76 | 1010.0 |
| 20260508174804 | 87 | 121 | 0.0 | 2.0 | 0.00 | 0.00 | 0.00 | 76 | 1010.0 |
| 20260508174504 | 87 | 124 | 0.0 | 2.0 | 0.00 | 0.00 | 0.00 | 76 | 1010.0 |
| 20260508174204 | 87 | 123 | 0.0 | 2.0 | 0.00 | 0.00 | 0.00 | 76 | 1010.0 |
| 20260508173904 | 87 | 134 | 1.0 | 2.0 | 0.00 | 0.00 | 0.00 | 76 | 1010.0 |
| 20260508173604 | 87 | 155 | 1.0 | 2.0 | 0.00 | 0.00 | 0.00 | 76 | 1010.0 |
| 20260508173304 | 87 | 167 | 1.0 | 2.0 | 0.00 | 0.00 | 0.00 | 76 | 1010.0 |
| 20260508173004 | 87 | 171 | 1.0 | 2.0 | 0.00 | 0.00 | 0.00 | 75 | 1010.0 |
| 20260508172704 | 87 | 157 | 0.0 | 2.0 | 0.00 | 0.00 | 0.00 | 76 | 1010.0 |
| 20260508172404 | 87 | 155 | 1.0 | 2.0 | 0.00 | 0.00 | 0.00 | 75 | 1010.0 |
| 20260508172104 | 87 | 154 | 1.0 | 2.0 | 0.00 | 0.00 | 0.00 | 75 | 1010.0 |
| 20260508171804 | 87 | 157 | 1.0 | 2.0 | 0.00 | 0.00 | 0.00 | 75 | 1010.0 |
| 20260508171504 | 87 | 155 | 1.0 | 2.0 | 0.00 | 0.00 | 0.00 | 75 | 1010.0 |
| 20260508171204 | 87 | 163 | 0.0 | 2.0 | 0.00 | 0.00 | 0.00 | 75 | 1010.0 |
| 20260508170925 | 87 | 160 | 0.0 | 2.0 | 0.00 | 0.00 | 0.00 | 75 | 1010.0 |
| 20260508170604 | 87 | 143 | 0.0 | 1.0 | 0.00 | 0.00 | 0.00 | 76 | 1010.0 |
| 20260508170304 | 87 | 132 | 0.0 | 2.0 | 0.00 | 0.00 | 0.00 | 76 | 1010.0 |
| 20260508170004 | 87 | 136 | 0.0 | 2.0 | 0.00 | 0.00 | 0.00 | 76 | 1010.0 |
| 20260508165404 | 87 | 133 | 1.0 | 2.0 | 0.00 | 0.00 | 0.00 | 75 | 1010.0 |
| 20260508165104 | 87 | 134 | 1.0 | 2.0 | 0.00 | 0.01 | 0.00 | 75 | 1010.0 |
| 20260508164804 | 87 | 142 | 1.0 | 2.0 | 0.00 | 0.01 | 0.00 | 75 | 1010.0 |
| 20260508164504 | 87 | 149 | 1.0 | 2.0 | 0.00 | 0.01 | 0.00 | 75 | 1010.0 |
| 20260508164204 | 87 | 165 | 1.0 | 2.0 | 0.00 | 0.01 | 0.00 | 75 | 1010.0 |
| 20260508163904 | 87 | 163 | 1.0 | 2.0 | 0.00 | 0.01 | 0.00 | 75 | 1010.0 |
| 20260508163604 | 87 | 167 | 1.0 | 2.0 | 0.00 | 0.01 | 0.00 | 75 | 1010.0 |
| 20260508163325 | 87 | 174 | 1.0 | 2.0 | 0.00 | 0.01 | 0.00 | 75 | 1010.0 |
| 20260508163004 | 87 | 165 | 1.0 | 2.0 | 0.00 | 0.01 | 0.00 | 75 | 1010.0 |
| 20260508162704 | 87 | 157 | 1.0 | 2.0 | 0.00 | 0.01 | 0.00 | 75 | 1010.0 |
| 20260508162404 | 87 | 151 | 1.0 | 2.0 | 0.00 | 0.01 | 0.00 | 75 | 1010.0 |
| 20260508162104 | 87 | 149 | 1.0 | 2.0 | 0.00 | 0.02 | 0.00 | 75 | 1010.0 |
| 20260508161804 | 87 | 154 | 1.0 | 2.0 | 0.00 | 0.02 | 0.00 | 75 | 1010.0 |
| 20260508161504 | 87 | 152 | 1.0 | 2.0 | 0.00 | 0.02 | 0.00 | 75 | 1010.0 |
| 20260508161204 | 87 | 139 | 0.0 | 2.0 | 0.00 | 0.02 | 0.00 | 75 | 1010.0 |
| 20260508160904 | 87 | 132 | 0.0 | 2.0 | 0.00 | 0.02 | 0.00 | 75 | 1010.0 |
| 20260508160625 | 87 | 130 | 0.0 | 2.0 | 0.00 | 0.02 | 0.00 | 75 | 1010.0 |
| 20260508160304 | 87 | 131 | 0.0 | 2.0 | 0.00 | 0.02 | 0.00 | 75 | 1010.0 |
| 20260508160025 | 87 | 126 | 0.0 | 2.0 | 0.00 | 0.02 | 0.00 | 75 | 1010.0 |
| 20260508155725 | 87 | 117 | 0.0 | 1.0 | 0.00 | 0.02 | 0.00 | 75 | 1010.0 |
| 20260508155425 | 87 | 121 | 0.0 | 1.0 | 0.00 | 0.03 | 0.00 | 75 | 1010.0 |
| 20260508155105 | 87 | 125 | 0.0 | 2.0 | 0.00 | 0.03 | 0.00 | 75 | 1010.0 |
| 20260508154804 | 87 | 133 | 0.0 | 2.0 | 0.00 | 0.04 | 0.00 | 75 | 1010.0 |
| 20260508154504 | 87 | 126 | 0.0 | 2.0 | 0.00 | 0.04 | 0.00 | 75 | 1010.0 |
| 20260508154204 | 87 | 132 | 0.0 | 2.0 | 0.00 | 0.05 | 0.00 | 75 | 1010.0 |
| 20260508153904 | 87 | 138 | 1.0 | 2.0 | 0.00 | 0.05 | 0.00 | 75 | 1010.0 |
| 20260508153604 | 87 | 144 | 0.0 | 2.0 | 0.00 | 0.06 | 0.00 | 75 | 1010.0 |
| 20260508153304 | 87 | 154 | 0.0 | 2.0 | 0.00 | 0.06 | 0.00 | 75 | 1010.0 |
| 20260508153004 | 87 | 148 | 0.0 | 2.0 | 0.00 | 0.07 | 0.00 | 75 | 1010.0 |
| 20260508152704 | 87 | 148 | 0.0 | 2.0 | 0.00 | 0.07 | 0.00 | 75 | 1010.0 |
| 20260508152404 | 87 | 142 | 0.0 | 2.0 | 0.00 | 0.07 | 0.00 | 75 | 1010.0 |
| 20260508152104 | 87 | 134 | 0.0 | 2.0 | 0.00 | 0.08 | 0.00 | 75 | 1010.0 |
| 20260508151825 | 87 | 138 | 0.0 | 2.0 | 0.00 | 0.08 | 0.00 | 75 | 1010.0 |
| 20260508151504 | 87 | 133 | 1.0 | 2.0 | 0.00 | 0.08 | 0.00 | 75 | 1010.0 |
| 20260508151225 | 87 | 130 | 1.0 | 2.0 | 0.00 | 0.08 | 0.00 | 75 | 1010.0 |
| 20260508150904 | 87 | 133 | 1.0 | 2.0 | 0.00 | 0.09 | 0.00 | 75 | 1010.0 |
| 20260508150604 | 87 | 135 | 0.0 | 2.0 | 0.00 | 0.09 | 0.00 | 75 | 1010.0 |
| 20260508150325 | 87 | 141 | 0.0 | 2.0 | 0.00 | 0.09 | 0.00 | 75 | 1010.0 |
| 20260508150005 | 87 | 126 | 0.0 | 2.0 | 0.00 | 0.09 | 0.00 | 75 | 1010.0 |
| 20260508145705 | 87 | 120 | 0.0 | 2.0 | 0.00 | 0.09 | 0.00 | 75 | 1010.0 |
| 20260508145404 | 87 | 110 | 0.0 | 2.0 | 0.00 | 0.09 | 0.00 | 75 | 1010.0 |
| 20260508145104 | 87 | 104 | 1.0 | 2.0 | 0.00 | 0.09 | 0.00 | 75 | 1010.0 |
| 20260508144804 | 87 | 107 | 0.0 | 2.0 | 0.00 | 0.09 | 0.00 | 75 | 1010.0 |
| 20260508144505 | 87 | 119 | 0.0 | 2.0 | 0.00 | 0.10 | 0.00 | 74 | 1010.0 |
| 20260508144204 | 87 | 136 | 0.0 | 2.0 | 0.00 | 0.13 | 0.00 | 75 | 1010.0 |
| 20260508143925 | 87 | 133 | 0.0 | 2.0 | 0.00 | 0.18 | 0.00 | 75 | 1010.0 |
| 20260508143625 | 87 | 126 | 0.0 | 2.0 | 0.00 | 0.25 | 0.00 | 75 | 1010.0 |
| 20260508143305 | 87 | 114 | 0.0 | 2.0 | 0.00 | 0.33 | 0.00 | 74 | 1010.0 |
| 20260508143004 | 87 | 106 | 0.0 | 2.0 | 0.00 | 0.39 | 0.00 | 74 | 1010.0 |
| 20260508142704 | 87 | 107 | 1.0 | 2.0 | 0.00 | 0.47 | 0.00 | 74 | 1010.0 |
| 20260508142404 | 87 | 114 | 1.0 | 2.0 | 0.00 | 0.53 | 0.00 | 74 | 1010.0 |
| 20260508142104 | 87 | 118 | 1.0 | 2.0 | 0.00 | 0.61 | 0.00 | 74 | 1010.0 |
| 20260508141804 | 87 | 123 | 1.0 | 2.0 | 0.00 | 0.68 | 0.00 | 74 | 1010.0 |
| 20260508141504 | 87 | 129 | 1.0 | 2.0 | 0.00 | 0.72 | 0.00 | 74 | 1010.0 |
| 20260508141204 | 87 | 134 | 0.0 | 2.0 | 0.00 | 0.74 | 0.00 | 74 | 1010.0 |
| 20260508140904 | 87 | 134 | 0.0 | 2.0 | 0.00 | 0.75 | 0.00 | 74 | 1010.0 |
| 20260508140604 | 87 | 140 | 0.0 | 3.0 | 0.00 | 0.76 | 0.00 | 74 | 1010.0 |
| 20260508140304 | 87 | 148 | 0.0 | 3.0 | 0.00 | 0.77 | 0.00 | 74 | 1010.0 |
| 20260508140005 | 87 | 150 | 1.0 | 3.0 | 0.00 | 0.79 | 0.00 | 74 | 1010.0 |
| 20260508135725 | 87 | 153 | 1.0 | 3.0 | 0.00 | 0.80 | 0.00 | 74 | 1010.0 |
| 20260508135404 | 87 | 158 | 0.0 | 2.0 | 0.00 | 0.80 | 0.00 | 74 | 1010.0 |
| 20260508135104 | 87 | 153 | 0.0 | 2.0 | 0.00 | 0.81 | 0.00 | 74 | 1010.0 |
| 20260508134804 | 87 | 146 | 0.0 | 2.0 | 0.00 | 0.81 | 0.00 | 74 | 1010.0 |
| 20260508134504 | 87 | 140 | 0.0 | 2.0 | 0.00 | 0.81 | 0.00 | 74 | 1010.0 |
| 20260508134225 | 87 | 134 | 0.0 | 2.0 | 0.00 | 0.81 | 0.00 | 75 | 1010.0 |
| 20260508133904 | 87 | 137 | 1.0 | 2.0 | 0.00 | 0.81 | 0.00 | 74 | 1010.0 |
| 20260508133604 | 87 | 137 | 1.0 | 2.0 | 0.00 | 0.81 | 0.00 | 74 | 1010.0 |
| 20260508133325 | 87 | 141 | 0.0 | 2.0 | 0.00 | 0.81 | 0.00 | 74 | 1010.0 |
| 20260508133004 | 87 | 136 | 0.0 | 2.0 | 0.00 | 0.81 | 0.00 | 74 | 1010.0 |
| 20260508132704 | 87 | 121 | 0.0 | 2.0 | 0.00 | 0.81 | 0.00 | 74 | 1010.0 |
| 20260508132404 | 87 | 125 | 0.0 | 2.0 | 0.00 | 0.81 | 0.00 | 74 | 1010.0 |
| 20260508132104 | 87 | 123 | 0.0 | 2.0 | 0.00 | 0.81 | 0.00 | 74 | 1010.0 |
| 20260508131825 | 87 | 140 | 0.0 | 2.0 | 0.00 | 0.81 | 0.00 | 74 | 1010.0 |
| 20260508131504 | 87 | 130 | 0.0 | 2.0 | 0.00 | 0.81 | 0.00 | 74 | 1010.0 |
| 20260508131204 | 87 | 129 | 0.0 | 2.0 | 0.00 | 0.81 | 0.00 | 74 | 1010.0 |
| 20260508130904 | 87 | 124 | 0.0 | 2.0 | 0.00 | 0.81 | 0.00 | 74 | 1010.0 |
| 20260508130604 | 87 | 137 | 0.0 | 2.0 | 0.00 | 0.81 | 0.00 | 74 | 1010.0 |
| 20260508130304 | 87 | 152 | 0.0 | 2.0 | 0.00 | 0.81 | 0.00 | 74 | 1010.0 |
| 20260508130004 | 87 | 157 | 0.0 | 2.0 | 0.00 | 0.81 | 0.00 | 73 | 1010.0 |
| 20260508125704 | 87 | 161 | 0.0 | 3.0 | 0.00 | 0.81 | 0.00 | 74 | 1010.0 |
| 20260508125404 | 87 | 151 | 1.0 | 3.0 | 0.00 | 0.81 | 0.00 | 74 | 1010.0 |
| 20260508125104 | 87 | 146 | 1.0 | 3.0 | 0.00 | 0.81 | 0.00 | 73 | 1010.0 |
| 20260508124825 | 87 | 138 | 1.0 | 3.0 | 0.00 | 0.81 | 0.00 | 74 | 1010.0 |
| 20260508124525 | 87 | 133 | 1.0 | 3.0 | 0.00 | 0.81 | 0.00 | 73 | 1010.0 |
| 20260508124204 | 87 | 131 | 1.0 | 3.0 | 0.00 | 0.81 | 0.00 | 74 | 1010.0 |
| 20260508123904 | 87 | 128 | 1.0 | 2.0 | 0.00 | 0.81 | 0.00 | 74 | 1010.0 |
| 20260508123604 | 87 | 147 | 1.0 | 3.0 | 0.00 | 0.81 | 0.00 | 73 | 1010.0 |
| 20260508123304 | 86 | 160 | 1.0 | 3.0 | 0.00 | 0.81 | 0.00 | 74 | 1010.0 |
| 20260508123025 | 86 | 171 | 1.0 | 3.0 | 0.00 | 0.81 | 0.00 | 74 | 1010.0 |
| 20260508122725 | 86 | 172 | 1.0 | 4.0 | 0.00 | 0.81 | 0.00 | 74 | 1010.0 |
| 20260508122425 | 86 | 169 | 1.0 | 4.0 | 0.00 | 0.81 | 0.00 | 74 | 1010.0 |
| 20260508122104 | 86 | 160 | 1.0 | 4.0 | 0.00 | 0.81 | 0.00 | 74 | 1010.0 |
| 20260508121804 | 86 | 157 | 1.0 | 4.0 | 0.00 | 0.81 | 0.00 | 73 | 1010.0 |
| 20260508121525 | 87 | 145 | 1.0 | 4.0 | 0.00 | 0.81 | 0.00 | 73 | 1010.0 |
| 20260508121225 | 86 | 142 | 1.0 | 4.0 | 0.00 | 0.81 | 0.00 | 73 | 1010.0 |
| 20260508120904 | 87 | 150 | 2.0 | 5.0 | 0.00 | 0.81 | 0.00 | 73 | 1010.0 |
| 20260508120604 | 87 | 150 | 2.0 | 6.0 | 0.00 | 0.81 | 0.00 | 73 | 1010.0 |
| 20260508120304 | 86 | 156 | 2.0 | 6.0 | 0.00 | 0.81 | 0.00 | 73 | 1010.0 |
| 20260508120004 | 86 | 162 | 2.0 | 6.0 | 0.00 | 0.81 | 0.00 | 73 | 1010.0 |
| 20260508115704 | 87 | 154 | 3.0 | 6.0 | 0.00 | 0.81 | 0.00 | 73 | 1010.0 |
| 20260508115425 | 86 | 163 | 2.0 | 6.0 | 0.00 | 0.81 | 0.00 | 74 | 1010.0 |
| 20260508115104 | 87 | 161 | 1.0 | 4.0 | 0.00 | 0.81 | 0.00 | 73 | 1010.0 |
| 20260508114804 | 87 | 160 | 1.0 | 4.0 | 0.00 | 0.81 | 0.00 | 74 | 1010.0 |
| 20260508114504 | 87 | 173 | 1.0 | 4.0 | 0.00 | 0.81 | 0.00 | 74 | 1010.0 |
| 20260508114204 | 87 | 169 | 1.0 | 3.0 | 0.00 | 0.81 | 0.00 | 73 | 1010.0 |
| 20260508113904 | 87 | 199 | 1.0 | 3.0 | 0.00 | 0.81 | 0.00 | 74 | 1010.0 |
| 20260508113604 | 87 | 260 | 0.0 | 2.0 | 0.00 | 0.81 | 0.00 | 74 | 1010.0 |
| 20260508113304 | 87 | 274 | 0.0 | 3.0 | 0.00 | 0.81 | 0.00 | 73 | 1010.0 |
| 20260508113005 | 87 | 191 | 1.0 | 3.0 | 0.00 | 0.81 | 0.00 | 73 | 1010.0 |
| 20260508112704 | 88 | 182 | 1.0 | 3.0 | 0.00 | 0.81 | 0.00 | 73 | 1010.0 |
| 20260508112404 | 87 | 171 | 1.0 | 3.0 | 0.00 | 0.81 | 0.00 | 73 | 1010.0 |
| 20260508112104 | 87 | 181 | 1.0 | 3.0 | 0.00 | 0.81 | 0.00 | 74 | 1010.0 |
| 20260508111804 | 87 | 170 | 1.0 | 3.0 | 0.00 | 0.81 | 0.00 | 74 | 1010.0 |
| 20260508111504 | 87 | 159 | 1.0 | 4.0 | 0.00 | 0.81 | 0.00 | 73 | 1010.0 |
| 20260508111204 | 87 | 148 | 1.0 | 4.0 | 0.00 | 0.81 | 0.00 | 73 | 1010.0 |
| 20260508110904 | 87 | 136 | 1.0 | 4.0 | 0.00 | 0.81 | 0.00 | 74 | 1010.0 |
| 20260508110604 | 87 | 134 | 1.0 | 4.0 | 0.00 | 0.81 | 0.00 | 73 | 1010.0 |
| 20260508110304 | 88 | 138 | 1.0 | 4.0 | 0.00 | 0.81 | 0.00 | 73 | 1010.0 |
| 20260508110004 | 87 | 153 | 2.0 | 4.0 | 0.00 | 0.81 | 0.00 | 73 | 1010.0 |
| 20260508105704 | 88 | 166 | 2.0 | 3.0 | 0.00 | 0.81 | 0.00 | 73 | 1010.0 |
| 20260508105405 | 87 | 168 | 1.0 | 3.0 | 0.00 | 0.81 | 0.00 | 73 | 1010.0 |
| 20260508105104 | 87 | 167 | 1.0 | 3.0 | 0.00 | 0.81 | 0.00 | 73 | 1010.0 |
| 20260508104804 | 88 | 161 | 1.0 | 3.0 | 0.00 | 0.81 | 0.00 | 72 | 1010.0 |
| 20260508104504 | 88 | 163 | 1.0 | 3.0 | 0.00 | 0.81 | 0.00 | 73 | 1010.0 |
| 20260508104204 | 88 | 153 | 1.0 | 3.0 | 0.00 | 0.81 | 0.00 | 73 | 1010.0 |
| 20260508103904 | 88 | 150 | 0.0 | 2.0 | 0.00 | 0.81 | 0.00 | 73 | 1010.0 |
| 20260508103604 | 89 | 143 | 0.0 | 2.0 | 0.00 | 0.81 | 0.00 | 72 | 1010.0 |
| 20260508103304 | 88 | 148 | 0.0 | 2.0 | 0.00 | 0.81 | 0.00 | 72 | 1010.0 |
| 20260508103004 | 88 | 146 | 0.0 | 2.0 | 0.00 | 0.81 | 0.00 | 72 | 1010.0 |
| 20260508102704 | 89 | 133 | 0.0 | 2.0 | 0.00 | 0.81 | 0.00 | 71 | 1010.0 |
| 20260508102404 | 89 | 97 | 0.0 | 2.0 | 0.00 | 0.81 | 0.00 | 71 | 1010.0 |
| 20260508102125 | 89 | 98 | 0.0 | 2.0 | 0.00 | 0.81 | 0.00 | 71 | 1010.0 |
| 20260508101804 | 89 | 81 | 0.0 | 2.0 | 0.00 | 0.81 | 0.00 | 71 | 1010.0 |
| 20260508101504 | 89 | 133 | 0.0 | 2.0 | 0.00 | 0.81 | 0.00 | 71 | 1010.0 |
| 20260508101205 | 89 | 142 | 1.0 | 3.0 | 0.00 | 0.81 | 0.00 | 71 | 1010.0 |
| 20260508100904 | 88 | 152 | 1.0 | 3.0 | 0.00 | 0.81 | 0.00 | 72 | 1010.0 |
| 20260508100604 | 88 | 158 | 1.0 | 3.0 | 0.00 | 0.81 | 0.00 | 72 | 1010.0 |
| 20260508100304 | 88 | 159 | 1.0 | 3.0 | 0.00 | 0.81 | 0.00 | 72 | 1010.0 |
| 20260508100025 | 88 | 168 | 1.0 | 3.0 | 0.00 | 0.81 | 0.00 | 72 | 1010.0 |
| 20260508095725 | 89 | 161 | 1.0 | 3.0 | 0.00 | 0.81 | 0.00 | 71 | 1010.0 |
| 20260508095404 | 89 | 154 | 1.0 | 3.0 | 0.00 | 0.81 | 0.00 | 71 | 1010.0 |
| 20260508095104 | 89 | 153 | 1.0 | 3.0 | 0.00 | 0.81 | 0.00 | 71 | 1010.0 |
| 20260508094804 | 89 | 146 | 1.0 | 3.0 | 0.00 | 0.81 | 0.00 | 72 | 1010.0 |
| 20260508094504 | 89 | 164 | 1.0 | 3.0 | 0.00 | 0.81 | 0.00 | 72 | 1010.0 |
| 20260508094204 | 89 | 187 | 1.0 | 3.0 | 0.00 | 0.81 | 0.00 | 72 | 1010.0 |
| 20260508093904 | 89 | 190 | 1.0 | 3.0 | 0.00 | 0.81 | 0.00 | 72 | 1010.0 |
| 20260508093604 | 89 | 162 | 1.0 | 5.0 | 0.00 | 0.81 | 0.00 | 71 | 1010.0 |
| 20260508093304 | 89 | 159 | 2.0 | 5.0 | 0.00 | 0.81 | 0.00 | 72 | 1010.0 |
| 20260508093004 | 89 | 159 | 2.0 | 9.0 | 0.00 | 0.81 | 0.00 | 71 | 1010.0 |
| 20260508092704 | 89 | 167 | 3.0 | 9.0 | 0.00 | 0.81 | 0.00 | 72 | 1010.0 |
| 20260508092404 | 89 | 163 | 3.0 | 9.0 | 0.00 | 0.81 | 0.00 | 71 | 1010.0 |
| 20260508092104 | 90 | 165 | 3.0 | 9.0 | 0.00 | 0.81 | 0.00 | 71 | 1010.0 |
| 20260508091804 | 90 | 155 | 2.0 | 9.0 | 0.00 | 0.81 | 0.00 | 73 | 1010.0 |
| 20260508091504 | 90 | 178 | 1.0 | 2.0 | 0.00 | 0.81 | 0.00 | 73 | 1010.0 |
| 20260508091225 | 91 | 161 | 1.0 | 2.0 | 0.00 | 0.81 | 0.00 | 72 | 1010.0 |
| 20260508090904 | 91 | 155 | 1.0 | 2.0 | 0.00 | 0.81 | 0.00 | 72 | 1010.0 |
| 20260508090604 | 92 | 144 | 1.0 | 3.0 | 0.00 | 0.81 | 0.00 | 72 | 1010.0 |
| 20260508090306 | 91 | 145 | 1.0 | 3.0 | 0.00 | 0.81 | 0.00 | 72 | 1010.0 |
| 20260508090004 | 92 | 146 | 1.0 | 3.0 | 0.00 | 0.81 | 0.00 | 72 | 1010.0 |
| 20260508085704 | 92 | 100 | 1.0 | 3.0 | 0.00 | 0.81 | 0.00 | 72 | 1010.0 |
| 20260508085404 | 92 | 112 | 1.0 | 3.0 | 0.00 | 0.81 | 0.00 | 72 | 1010.0 |
| 20260508085104 | 92 | 132 | 1.0 | 3.0 | 0.00 | 0.81 | 0.00 | 72 | 1010.0 |
| 20260508084804 | 92 | 157 | 1.0 | 2.0 | 0.00 | 0.81 | 0.00 | 72 | 1010.0 |
| 20260508084504 | 92 | 153 | 1.0 | 3.0 | 0.00 | 0.81 | 0.00 | 72 | 1010.0 |
| 20260508084204 | 92 | 148 | 1.0 | 3.0 | 0.00 | 0.81 | 0.00 | 71 | 1010.0 |
| 20260508083904 | 92 | 115 | 1.0 | 4.0 | 0.00 | 0.81 | 0.00 | 71 | 1010.0 |
| 20260508083604 | 92 | 99 | 1.0 | 4.0 | 0.00 | 0.81 | 0.00 | 71 | 1010.0 |
| 20260508083304 | 92 | 84 | 1.0 | 4.0 | 0.00 | 0.81 | 0.00 | 71 | 1010.0 |
| 20260508083004 | 92 | 87 | 1.0 | 4.0 | 0.00 | 0.81 | 0.00 | 71 | 1010.0 |
| 20260508082704 | 92 | 114 | 1.0 | 3.0 | 0.00 | 0.81 | 0.00 | 71 | 1010.0 |
| 20260508082425 | 93 | 179 | 1.0 | 3.0 | 0.00 | 0.81 | 0.00 | 70 | 1010.0 |
| 20260508082104 | 93 | 174 | 1.0 | 3.0 | 0.00 | 0.81 | 0.00 | 71 | 1010.0 |
| 20260508081804 | 93 | 159 | 1.0 | 5.0 | 0.00 | 0.81 | 0.00 | 71 | 1010.0 |
| 20260508081504 | 93 | 165 | 1.0 | 5.0 | 0.00 | 0.81 | 0.00 | 71 | 1010.0 |
| 20260508081204 | 93 | 178 | 1.0 | 5.0 | 0.00 | 0.81 | 0.00 | 71 | 1010.0 |
| 20260508080904 | 93 | 172 | 1.0 | 5.0 | 0.00 | 0.81 | 0.00 | 71 | 1010.0 |
| 20260508080604 | 93 | 181 | 1.0 | 4.0 | 0.00 | 0.81 | 0.00 | 71 | 1010.0 |
| 20260508080304 | 93 | 163 | 1.0 | 4.0 | 0.00 | 0.81 | 0.00 | 71 | 1010.0 |
| 20260508080004 | 93 | 163 | 2.0 | 4.0 | 0.00 | 0.81 | 0.00 | 71 | 1010.0 |
| 20260508075725 | 93 | 164 | 1.0 | 4.0 | 0.00 | 0.81 | 0.00 | 71 | 1010.0 |
| 20260508075404 | 93 | 174 | 1.0 | 3.0 | 0.00 | 0.81 | 0.00 | 71 | 1010.0 |
| 20260508075104 | 93 | 185 | 1.0 | 3.0 | 0.00 | 0.81 | 0.00 | 71 | 1010.0 |
| 20260508074804 | 93 | 176 | 1.0 | 4.0 | 0.00 | 0.81 | 0.00 | 71 | 1010.0 |
| 20260508074504 | 93 | 166 | 1.0 | 4.0 | 0.00 | 0.81 | 0.00 | 71 | 1010.0 |
| 20260508074204 | 93 | 180 | 2.0 | 4.0 | 0.00 | 0.81 | 0.00 | 71 | 1010.0 |
| 20260508073904 | 93 | 202 | 2.0 | 3.0 | 0.00 | 0.81 | 0.00 | 71 | 1010.0 |
| 20260508073625 | 92 | 215 | 1.0 | 3.0 | 0.00 | 0.81 | 0.00 | 71 | 1010.0 |
| 20260508073304 | 92 | 196 | 1.0 | 3.0 | 0.00 | 0.81 | 0.00 | 72 | 1010.0 |
| 20260508073004 | 92 | 175 | 1.0 | 3.0 | 0.00 | 0.81 | 0.00 | 71 | 1010.0 |
| 20260508072704 | 92 | 169 | 1.0 | 3.0 | 0.00 | 0.81 | 0.00 | 71 | 1010.0 |
| 20260508072404 | 92 | 169 | 1.0 | 3.0 | 0.00 | 0.81 | 0.00 | 72 | 1010.0 |
| 20260508072104 | 92 | 180 | 1.0 | 3.0 | 0.00 | 0.81 | 0.00 | 72 | 1010.0 |
| 20260508071804 | 92 | 190 | 1.0 | 3.0 | 0.00 | 0.81 | 0.00 | 72 | 1010.0 |
| 20260508071504 | 92 | 211 | 1.0 | 3.0 | 0.00 | 0.81 | 0.00 | 71 | 1010.0 |
| 20260508071204 | 92 | 180 | 1.0 | 3.0 | 0.00 | 0.81 | 0.00 | 71 | 1010.0 |
| 20260508070904 | 92 | 164 | 1.0 | 3.0 | 0.00 | 0.81 | 0.00 | 71 | 1010.0 |
| 20260508070604 | 92 | 136 | 2.0 | 4.0 | 0.00 | 0.81 | 0.00 | 72 | 1010.0 |
| 20260508070304 | 92 | 135 | 1.0 | 4.0 | 0.00 | 0.81 | 0.00 | 72 | 1010.0 |
| 20260508070004 | 92 | 158 | 1.0 | 4.0 | 0.00 | 0.81 | 0.00 | 72 | 1010.0 |
| 20260508065704 | 92 | 223 | 1.0 | 4.0 | 0.00 | 0.81 | 0.00 | 72 | 1010.0 |
| 20260508065404 | 92 | 247 | 1.0 | 4.0 | 0.00 | 0.81 | 0.00 | 72 | 1010.0 |
| 20260508065104 | 92 | 251 | 1.0 | 4.0 | 0.00 | 0.81 | 0.00 | 72 | 1010.0 |
| 20260508064804 | 92 | 266 | 0.0 | 3.0 | 0.00 | 0.81 | 0.00 | 73 | 1010.0 |